This is the latest recevied weather packets stored in our database for station/object HS1AXC-1. If no packets are shown the sender has not sent any weather packets the latest 10 day(s).
| Time | Temp. | Humidity | Pressure | Rain* | Wind** | Luminosity | Snow |
|---|---|---|---|---|---|---|---|
| 1788360254 | 34.44° C | 59% | 1010 hPa | - | - | 0 W/m² | - |
| 1788359632 | 33.89° C | 60% | 1010 hPa | - | - | 0 W/m² | - |
| 1788359011 | 34.44° C | 60% | 1010 hPa | - | - | 0 W/m² | - |
| 1788358376 | 33.89° C | 61% | 1010 hPa | - | - | 0 W/m² | - |
| 1788357752 | 34.44° C | 61% | 1009 hPa | - | - | 0 W/m² | - |
| 1788357126 | 34.44° C | 61% | 1009 hPa | - | - | 0 W/m² | - |
| 1788356499 | 34.44° C | 62% | 1009 hPa | - | - | 0 W/m² | - |
| 1788355878 | 34.44° C | 62% | 1009 hPa | - | - | 0 W/m² | - |
| 1788355255 | 34.44° C | 62% | 1009 hPa | - | - | 0 W/m² | - |
| 1788354633 | 34.44° C | 62% | 1008 hPa | - | - | 0 W/m² | - |
| 1788354011 | 34.44° C | 64% | 1008 hPa | - | - | 0 W/m² | - |
| 1788353389 | 34.44° C | 73% | 1008 hPa | - | - | 0 W/m² | - |
| 1788352767 | 33.89° C | 76% | 1008 hPa | - | - | 0 W/m² | - |
| 1788352145 | 33.89° C | 75% | 1008 hPa | - | - | 0 W/m² | - |
| 1788351383 | 33.89° C | 75% | 1008 hPa | - | - | 0 W/m² | - |
| 1788350761 | 33.89° C | 72% | 1008 hPa | - | - | 0 W/m² | - |
| 1788350104 | 33.89° C | 72% | 1007 hPa | - | - | 0 W/m² | - |
| 1788349482 | 33.89° C | 68% | 1007 hPa | - | - | 0 W/m² | - |
| 1788348860 | 35° C | 64% | 1007 hPa | - | - | 0 W/m² | - |
| 1788348347 | 35.56° C | 62% | 1007 hPa | - | - | 0 W/m² | - |
| 1788347725 | 35° C | 63% | 1007 hPa | - | - | 0 W/m² | - |
| 1788347103 | 36.11° C | 60% | 1007 hPa | - | - | 0 W/m² | - |
| 1788346481 | 35.56° C | 61% | 1007 hPa | - | - | 0 W/m² | - |
| 1788345859 | 36.11° C | 61% | 1007 hPa | - | - | 0 W/m² | - |
| 1788345237 | 36.11° C | 60% | 1006 hPa | - | - | 0 W/m² | - |
* Rain since midnight (hover to see other rain measurements)
** Current wind speed in m/s (hover to see current wind gust speed)